Retour au catalogue

COSMOS 2233

ActifNavigationPO
NORAD 22487·PAYLOAD·🇷🇺 Russia

Lancé Feb 9, 1993 depuis Plesetsk Cosmodrome

Loading…

Prochains Passages (prochaines 24 heures)

TLE

FraisSource: Space-Track

Époque: Sep 14, 2026, 22:27 UTC

1 22487U 93008A   26257.93548792  .00000058  00000-0  44337-4 0  9990
2 22487  82.9424 115.9993 0037002 223.5256 200.1159 13.76046478682367

Suivez COSMOS 2233 en temps réel avec AllMySat

Download on the App Store